This is the latest recevied weather packets stored in our database for station/object YV5KXE-4. If no packets are shown the sender has not sent any weather packets the latest 1 day(s).
| Time | Temp. | Humidity | Pressure | Rain* | Wind** | Luminosity | Snow |
|---|---|---|---|---|---|---|---|
| 1778114704 | 24.44° C | 79% | 1016 hPa | 0 mm | - | - | - |
| 1778114404 | 24.44° C | 78% | 1015.9 hPa | 0 mm | - | - | - |
| 1778114104 | 24.44° C | 78% | 1015.9 hPa | 0 mm | - | - | - |
| 1778113504 | 24.44° C | 77% | 1015.9 hPa | 0 mm | - | - | - |
| 1778112604 | 24.44° C | 75% | 1015.5 hPa | 0 mm | - | - | - |
| 1778112304 | 25° C | 75% | 1015.5 hPa | 0 mm | - | - | - |
| 1778110206 | 26.11° C | 68% | 1015.2 hPa | 0 mm | - | - | - |
| 1778108704 | 26.67° C | 61% | 1014.7 hPa | 0 mm | - | - | - |
| 1778108406 | 26.67° C | 59% | 1014.7 hPa | 0 mm | - | - | - |
| 1778106606 | 27.22° C | 56% | 1014.2 hPa | 0 mm | - | - | - |
| 1778106004 | 27.22° C | 56% | 1014.1 hPa | 0 mm | - | - | - |
| 1778104204 | 27.78° C | 53% | 1014 hPa | 0 mm | - | - | - |
| 1778101804 | 28.33° C | 50% | 1013.4 hPa | 0 mm | - | - | - |
| 1778101504 | 28.33° C | 49% | 1013.4 hPa | 0 mm | - | - | - |
| 1778100304 | 28.33° C | 47% | 1013.1 hPa | 0 mm | - | - | - |
| 1778100004 | 28.33° C | 48% | 1013.2 hPa | 0 mm | - | - | - |
| 1778098804 | 28.89° C | 47% | 1013.3 hPa | 0 mm | - | - | - |
| 1778097904 | 28.33° C | 46% | 1013.4 hPa | 0 mm | - | - | - |
| 1778096704 | 28.33° C | 47% | 1013.7 hPa | 0 mm | - | - | - |
| 1778093404 | 28.33° C | 46% | 1014.5 hPa | 0 mm | - | - | - |
| 1778091304 | 28.89° C | 44% | 1014.9 hPa | 0 mm | - | - | - |
| 1778089504 | 27.78° C | 46% | 1015.7 hPa | 0 mm | - | - | - |
| 1778086504 | 27.78° C | 47% | 1016.4 hPa | 0 mm | - | - | - |
| 1778085904 | 28.33° C | 47% | 1016.6 hPa | 0 mm | - | - | - |
| 1778084704 | 27.22° C | 52% | 1017 hPa | 0 mm | - | - | - |
* Rain latest hour (hover to see other rain measurements)
** Current wind speed in m/s (hover to see current wind gust speed)